Regional Weather Roundup
Issued by NWS

Home | Current Version | Previous Version | Text Only | Print | Product List | Glossary On
Versions: 1 2 3 4 5 6 7 8 9 10 11 12 13 14 15 16 17 18 19 20 21 22 23 24 25 26 27 28 29 30 31 32 33 34 35 36 37 38 39 40 41 42 43 44 45 46 47 48 49 50
000
ASPQ40 PGUM 191612
RWRPQ
WEATHER ROUNDUP FOR THE MARIANAS AND MICRONESIA
NATIONAL WEATHER SERVICE TIYAN GU
200 AM CHST SAT SEP 20 2014

GUZ001>004-191700-
MARIANA ISLANDS-

CITY           SKY/WX    TMP DP  RH WIND       PRES   REMARKS
GUAM AIRPORT   CLEAR     79  75  89 NE3       29.83F
ANDERSEN AFB   MOCLDY    81  77  89 NE10      29.82F
ROTA AIRPORT   NOT AVBL
TINIAN AP      NOT AVBL
SAIPAN AP      PTCLDY    81  77  89 N5        29.82F

$$

PMZ161-191700-
REPUBLIC OF PALAU-

CITY           SKY/WX    TMP DP  RH WIND       PRES   REMARKS
KOROR AP       CLOUDY    75  73  94 NW5       29.89F
KOROR WSO      LGT RAIN  77  75  94 NW5       29.89F

$$

PMZ171>174-191700-
FEDERATED STATES OF MICRONESIA-

CITY           SKY/WX    TMP DP  RH WIND       PRES   REMARKS
YAP AIRPORT    CLOUDY    79  77  94 VRB6      29.82F
CHUUK AP       MOCLDY    79  79 100 VRB3      29.76F
POHNPEI AP     NOT AVBL
POHNPEI WSO    LGT RAIN  77  75  94 SW3       29.80F
KOSRAE AP      NOT AVBL

$$

PMZ181-191700-
REPUBLIC OF THE MARSHALL ISLANDS-

CITY           SKY/WX    TMP DP  RH WIND       PRES   REMARKS
KWAJALEIN AP   CLEAR     82  73  74 E3        29.76S
MAJURO AP      NOT AVBL
MAJURO WSO     MOCLDY    82  75  78 E3        29.75F

$$



USA.gov is the U.S. government's official web portal to all federal, state and local government web resources and services.